User: anonymous   Login
Location: Unspecified
(0.0000°N, 0.0000°E)
Time: 09:01:48
(UTC+00:00)
Language:

KMS 4 - Orbit

View from above orbital plane
View from above orbital plane
View from above satellite
View from above satellite

Ground track
Ground track

The orbit data is extracted from the following two-line orbital elements,

1 41332U 16009A   19345.76835790 +.00001224 +00000-0 +39671-4 0  9995
2 41332 097.3459 053.3824 0023662 029.2194 331.0367 15.33720464214806
Epoch (UTC): 11 December 2019 18:26:26
Eccentricity: 0.0023662
inclination: 97.3459°
perigee height: 448 km
apogee height: 481 km
right ascension of ascending node: 53.3824°
argument of perigee: 29.2194°
revolutions per day: 15.33720464
mean anomaly at epoch: 331.0367°
orbit number at epoch: 21480

The dashed part of the orbit path shows where the satellite is in the earth's shadow,  

DLR